User: anonymous
Location: Mount Kobau Star Party
(49.1167°N, 119.7333°W)
Time: 15:23:58
(UTC-07:00)
Language:

TSX-5 - Orbit

View from above orbital plane
View from above orbital plane
View from above satellite
View from above satellite

Ground track
Ground track

The orbit data is extracted from the following two-line orbital elements,

1 26374U 00030A   14232.48057862  .00002347  00000-0  21780-3 0  3718
2 26374 068.9366 355.8775 0698705 359.3049 058.7490 13.93273835711590
Epoch (UTC): 20 August 2014 11:32:01
Eccentricity: 0.0698705
inclination: 68.9366°
perigee height: 407 km
apogee height: 1427 km
right ascension of ascending node: 355.8775°
argument of perigee: 359.3049°
revolutions per day: 13.93273835
mean anomaly at epoch: 58.7490°
orbit number at epoch: 71159

The dashed part of the orbit path shows where the satellite is in the earth's shadow,  

DLR